Regional Weather Roundup
Issued by NWS

Home | Current Version | Previous Version | Graphics & Text | Print | Product List | Glossary On
Versions: 1 2 3 4 5 6 7 8 9 10 11 12 13 14 15 16 17 18 19 20 21 22 23 24 25 26 27 28 29 30 31 32 33 34 35 36 37 38 39 40 41 42 43 44 45 46 47 48 49 50
000
ASUS43 KLSX 221757
RWRMO

WEATHER SUMMARY FOR MISSOURI
NATIONAL WEATHER SERVICE SPRINGFIELD MO
100 PM CDT THU JUN 22 2017

NOTE: "FAIR" INDICATES FEW OR NO CLOUDS BELOW 12,000 FEET WITH NO
       SIGNIFICANT WEATHER AND/OR OBSTRUCTIONS TO VISIBILITY.
       CURRENT SKY AND/OR WEATHER CONDITIONS ARE NOT AVAILABLE FOR
       CHILLICOTHE AND FARMINGTON.

MOZ001>031-035>038-043-044-053-054-221900-
...NORTHERN AND WESTERN MISSOURI...

CITY           SKY/WX    TMP DP  RH WIND       PRES   REMARKS
KANSAS CTY INT SUNNY     85  71  63 S15       29.72F HX  90
6HR MIN TEMP:  71; 6HR MAX TEMP:  85;

LEE`S SUMMIT   CLOUDY    82  71  69 MISG      29.75F
6HR MIN TEMP:  72; 6HR MAX TEMP:  84;

ST JOSEPH      CLOUDY    86  71  60 S13G21    29.70F HX  91
6HR MIN TEMP:  73; 6HR MAX TEMP:  86;

CHILLICOTHE      N/A     86  72  62 S13G20    29.73F HX  92
6HR MIN TEMP:  71; 6HR MAX TEMP:  86;


$$
MOZ066>068-077>081-088>096-101>105-221900-
...SOUTHWEST MISSOURI...

CITY           SKY/WX    TMP DP  RH WIND       PRES   REMARKS
SPRINGFIELD    CLOUDY    82  73  74 SE13      29.79F
6HR MIN TEMP:  72; 6HR MAX TEMP:  82;

JOPLIN         CLOUDY    84  74  71 S8        29.76F HX  91
6HR MIN TEMP:  73; 6HR MAX TEMP:  86;

BRANSON        CLOUDY    79  72  78 SE12      29.81F

$$
MOZ032>034-039>042-045>050-055>058-069>072-221900-
...CENTRAL MISSOURI...

CITY           SKY/WX    TMP DP  RH WIND       PRES   REMARKS
COLUMBIA       NOT AVBL
JEFFERSON CITY CLOUDY    82  71  69 SE13      29.78F
6HR MIN TEMP:  72; 6HR MAX TEMP:  82;

ROLLA          PTSUNNY   82  73  74 SE17      29.81F
6HR MIN TEMP:  69; 6HR MAX TEMP:  82;

SEDALIA        CLOUDY    82  75  79 S8        29.78F
6HR MIN TEMP:  72; 6HR MAX TEMP:  83;

WARRENSBURG    CLOUDY    81  70  69 S13       29.75F
OSAGE BEACH    CLOUDY    82  72  69 S9G16     29.80F

$$
MOZ051-052-059>065-221900-
...EAST CENTRAL MISSOURI...

CITY           SKY/WX    TMP DP  RH WIND       PRES   REMARKS
ST LOUIS INTL  PTSUNNY   84  71  65 SE15G22   29.83F
6HR MIN TEMP:  77; 6HR MAX TEMP:  84;

ST CHARLES     CLOUDY    79  72  78 MISG      29.82F

$$
MOZ072>076-082>087-097>100-106>115-221900-
...SOUTH CENTRAL AND SOUTHEAST MISSOURI...

CITY           SKY/WX    TMP DP  RH WIND       PRES   REMARKS
CAPE GIRARDEAU LGT RAIN  77  73  87 S10       29.85F
6HR MIN TEMP:  73; 6HR MAX TEMP:  77; 6HR PCP:  0.37;

POPLAR BLUFF   LGT RAIN  79  75  87 SE6       29.82F FOG
6HR MIN TEMP:  74; 6HR MAX TEMP:  80; 6HR PCP: TRACE;

WEST PLAINS    CLOUDY    76  71  85 S8        29.85S
6HR MIN TEMP:  72; 6HR MAX TEMP:  78;


$$



USA.gov is the U.S. government's official web portal to all federal, state and local government web resources and services.